IZ1ERR Weather Reports


Display with metric or nautical units.
time (UTC)temp
F
wind
direction
speed
MPH
gust
MPH
rain 1hr
in
rain 24hr
in
rain mn
in
humidity
%
barometer
mb
20260508003015 58 0.0 1.0 0.00 0.00 0.00 74 1013.5
20260508002015 59 0.0 0.0 0.00 0.00 0.00 74 1013.5
20260508001015 59 0.0 1.0 0.00 0.00 0.00 73 1013.6
20260508000035 59 0.0 4.0 0.00 0.00 0.00 73 1013.7
20260507235015 59 0.0 4.0 0.00 0.00 0.00 73 1013.8
20260507234015 59 0.0 1.0 0.00 0.00 0.00 73 1013.8
20260507233115 58 0.0 1.0 0.00 0.00 0.00 75 1013.8
20260507232015 58 0.0 1.0 0.00 0.00 0.00 76 1013.9
20260507231035 58 0.0 0.0 0.00 0.00 0.00 76 1013.8
20260507230015 58 0.0 0.0 0.00 0.00 0.00 75 1013.9
20260507225015 59 0.0 0.0 0.00 0.00 0.00 73 1013.8
20260507224015 59 0.0 0.0 0.00 0.00 0.00 73 1013.7
20260507223015 59 0.0 0.0 0.00 0.00 0.00 73 1013.7
20260507222035 59 0.0 1.0 0.00 0.00 0.00 73 1013.6
20260507221015 59 0.0 0.0 0.00 0.00 0.00 73 1013.6
20260507220015 59 0.0 2.0 0.00 0.00 0.00 73 1013.5
20260507215016 59 0.0 2.0 0.00 0.00 0.00 73 1013.5
20260507214016 60 0.0 0.0 0.00 0.00 0.00 72 1013.5
20260507213016 60 0.0 0.0 0.00 0.01 0.00 72 1013.5
20260507212016 60 0.0 3.0 0.00 0.02 0.00 73 1013.5
20260507211016 59 0.0 2.0 0.00 0.03 0.00 74 1013.5
20260507210036 60 247 1.0 6.0 0.00 0.03 0.00 75 1013.5
20260507205016 60 0.0 3.0 0.00 0.03 0.00 75 1013.5
20260507204016 61 247 2.0 4.0 0.00 0.03 0.00 73 1013.4
20260507203016 61 225 1.0 3.0 0.00 0.03 0.00 71 1013.3
20260507202016 61 180 1.0 5.0 0.00 0.03 0.00 71 1013.4
20260507201016 61 202 2.0 7.0 0.00 0.03 0.00 70 1013.3
20260507200016 61 0.0 0.0 0.00 0.03 0.00 68 1012.9
20260507195016 61 0.0 0.0 0.00 0.03 0.00 68 1012.6
20260507194016 62 0.0 0.0 0.00 0.03 0.00 68 1012.6
20260507193016 62 0.0 0.0 0.00 0.03 0.00 68 1012.6
20260507192016 62 0.0 0.0 0.00 0.03 0.00 68 1012.4
20260507191056 62 0.0 0.0 0.00 0.03 0.00 69 1012.2
20260507190036 62 0.0 0.0 0.00 0.03 0.00 68 1012.2
20260507185016 63 0.0 0.0 0.00 0.03 0.00 70 1012.0
20260507184016 63 0.0 0.0 0.00 0.03 0.00 71 1011.9
20260507183036 63 0.0 1.0 0.00 0.03 0.00 68 1011.8
20260507182016 64 270 1.0 3.0 0.00 0.03 0.00 66 1011.7
20260507181036 65 0.0 2.0 0.00 0.03 0.00 64 1011.7
20260507180036 66 0.0 2.0 0.00 0.03 0.00 61 1011.6
20260507175016 66 247 1.0 3.0 0.00 0.03 0.00 60 1011.6
20260507174036 67 0.0 1.0 0.00 0.03 0.00 57 1011.4
20260507173056 69 0.0 0.0 0.00 0.03 0.00 50 1011.4
20260507172016 69 0.0 2.0 0.00 0.03 0.00 48 1011.4
20260507171016 69 0.0 2.0 0.00 0.03 0.00 49 1011.3
20260507170016 69 0.0 2.0 0.00 0.03 0.00 48 1011.3
20260507165016 70 157 1.0 4.0 0.00 0.03 0.00 44 1011.3
20260507164016 71 225 1.0 4.0 0.00 0.03 0.00 45 1011.4
20260507163016 70 135 1.0 4.0 0.00 0.03 0.00 45 1011.4
20260507162036 70 157 1.0 5.0 0.00 0.03 0.00 45 1011.3
20260507161016 70 157 1.0 5.0 0.00 0.03 0.00 45 1011.3
20260507160016 69 0.0 3.0 0.00 0.03 0.00 46 1011.3
20260507155016 70 292 1.0 3.0 0.00 0.03 0.00 46 1011.2
20260507154016 70 247 2.0 6.0 0.00 0.03 0.00 46 1011.2
20260507153016 69 0.0 5.0 0.00 0.03 0.00 48 1011.2
20260507152016 69 90 3.0 5.0 0.00 0.03 0.00 48 1011.2
20260507151016 70 67 1.0 7.0 0.00 0.03 0.00 46 1011.3
20260507150016 69 90 1.0 5.0 0.00 0.03 0.00 47 1011.4
20260507145016 71 225 2.0 7.0 0.00 0.03 0.00 45 1011.4
20260507144016 71 157 2.0 5.0 0.00 0.03 0.00 46 1011.7
20260507143016 71 157 2.0 5.0 0.00 0.03 0.00 48 1011.7
20260507142016 70 157 1.0 5.0 0.00 0.03 0.00 49 1011.8
20260507141016 70 157 2.0 7.0 0.00 0.03 0.00 47 1011.8
20260507140016 69 67 3.0 7.0 0.00 0.03 0.00 50 1011.8
20260507135056 70 180 1.0 6.0 0.00 0.03 0.00 50 1011.8
20260507134016 70 157 2.0 6.0 0.00 0.03 0.00 48 1012.0
20260507133016 70 157 3.0 7.0 0.00 0.03 0.00 48 1012.1
20260507132016 68 90 1.0 6.0 0.00 0.03 0.00 51 1012.2
20260507131016 67 90 2.0 7.0 0.00 0.03 0.00 51 1012.2
20260507130016 67 112 3.0 6.0 0.00 0.03 0.00 53 1012.2
20260507125016 69 135 3.0 6.0 0.00 0.03 0.00 48 1012.3
20260507124016 69 180 1.0 5.0 0.00 0.03 0.00 50 1012.4
20260507123016 70 157 2.0 6.0 0.00 0.03 0.00 50 1012.5
20260507122016 68 180 3.0 7.0 0.00 0.03 0.00 53 1012.5
20260507121016 67 180 3.0 8.0 0.00 0.03 0.00 57 1012.7
20260507120016 67 67 1.0 6.0 0.00 0.03 0.00 56 1012.8
20260507115016 67 112 1.0 5.0 0.00 0.03 0.00 55 1012.8
20260507114056 69 157 2.0 8.0 0.00 0.03 0.00 57 1012.9
20260507113016 68 157 2.0 8.0 0.00 0.03 0.00 56 1013.0
20260507112016 67 180 3.0 8.0 0.00 0.03 0.00 60 1013.0
20260507111136 66 135 3.0 8.0 0.00 0.03 0.00 61 1013.1
20260507110016 64 135 1.0 6.0 0.00 0.03 0.00 64 1013.2
20260507105016 64 45 2.0 10.0 0.00 0.03 0.00 64 1013.3
20260507104016 64 90 3.0 8.0 0.00 0.03 0.00 61 1013.3
20260507103016 66 157 3.0 11.0 0.00 0.03 0.00 60 1013.3
20260507102016 66 180 2.0 9.0 0.00 0.03 0.00 60 1013.5
20260507101016 65 157 3.0 9.0 0.00 0.03 0.00 61 1013.5
20260507100037 64 157 4.0 9.0 0.00 0.03 0.00 62 1013.4
20260507095016 64 180 2.0 9.0 0.00 0.03 0.00 63 1013.5
20260507094016 64 157 2.0 8.0 0.00 0.03 0.00 64 1013.5
20260507093016 63 180 3.0 8.0 0.00 0.03 0.00 63 1013.4
20260507092036 62 157 2.0 8.0 0.00 0.03 0.00 68 1013.4
20260507091016 62 67 1.0 7.0 0.00 0.03 0.00 68 1013.4
20260507090016 62 157 2.0 5.0 0.00 0.04 0.00 69 1013.3
20260507085016 61 180 1.0 5.0 0.00 0.04 0.00 71 1013.3
20260507084016 61 157 2.0 6.0 0.00 0.05 0.00 72 1013.2
20260507083056 60 90 1.0 7.0 0.00 0.06 0.00 74 1013.3
20260507082016 60 90 2.0 8.0 0.00 0.07 0.00 72 1013.2
20260507081016 60 180 2.0 5.0 0.00 0.07 0.00 74 1013.2
20260507080036 60 157 2.0 6.0 0.00 0.11 0.00 79 1013.2
20260507075016 59 157 2.0 5.0 0.00 0.11 0.00 79 1013.1
20260507074016 59 135 2.0 5.0 0.00 0.13 0.00 80 1013.1
20260507073036 59 180 1.0 5.0 0.00 0.17 0.00 82 1013.2
20260507072016 58 90 1.0 5.0 0.00 0.25 0.00 82 1013.1
20260507071036 58 0.0 3.0 0.00 0.27 0.00 84 1013.1
20260507070021 57 157 1.0 6.0 0.00 0.28 0.00 84 1013.0
20260507065016 56 0.0 1.0 0.00 0.28 0.00 84 1012.8
20260507064016 56 0.0 1.0 0.00 0.30 0.00 85 1012.8
20260507063016 55 0.0 1.0 0.00 0.36 0.00 87 1012.8
20260507062016 54 0.0 1.0 0.00 0.38 0.00 90 1012.8
20260507061016 53 0.0 3.0 0.00 0.40 0.00 92 1012.7
20260507060016 53 180 1.0 4.0 0.00 0.42 0.00 92 1012.7
20260507055016 52 157 1.0 3.0 0.00 0.54 0.00 92 1012.5
20260507054016 52 157 1.0 4.0 0.00 0.60 0.00 92 1012.4
20260507053016 52 157 1.0 5.0 0.00 0.60 0.00 91 1012.3
20260507052016 51 0.0 2.0 0.00 0.61 0.00 92 1012.2
20260507051016 51 0.0 2.0 0.00 0.61 0.00 92 1012.1
20260507050016 51 0.0 0.0 0.00 0.62 0.00 92 1011.9
20260507045016 50 0.0 0.0 0.00 0.63 0.00 93 1011.7
20260507044016 50 0.0 0.0 0.00 0.63 0.00 92 1011.7
20260507043016 50 0.0 1.0 0.00 0.65 0.00 92 1011.6
20260507042016 50 0.0 0.0 0.00 0.66 0.00 92 1011.4
20260507041016 50 0.0 0.0 0.00 0.67 0.00 92 1011.3
20260507040156 50 0.0 0.0 0.00 0.68 0.00 92 1011.3
20260507035016 51 0.0 0.0 0.00 0.68 0.00 93 1011.2
20260507034016 51 0.0 0.0 0.00 0.69 0.00 93 1011.2
20260507033016 51 0.0 2.0 0.00 0.70 0.00 94 1011.1
20260507032016 51 0.0 0.0 0.00 0.70 0.00 94 1011.0
20260507031016 51 0.0 0.0 0.00 0.70 0.00 94 1011.1
20260507030036 51 0.0 0.0 0.00 0.70 0.00 94 1011.2
20260507025016 51 0.0 2.0 0.00 0.70 0.00 94 1011.2
20260507024016 51 0.0 1.0 0.00 0.70 0.00 94 1011.2
20260507023015 51 0.0 2.0 0.00 0.70 0.00 94 1011.2
20260507022016 51 0.0 2.0 0.00 0.70 0.00 94 1011.2
20260507021016 51 0.0 0.0 0.00 0.70 0.00 94 1011.2
20260507020016 51 0.0 0.0 0.00 0.70 0.00 94 1011.2
20260507015016 52 0.0 0.0 0.00 0.70 0.00 94 1011.2
20260507014016 52 0.0 3.0 0.00 0.70 0.00 93 1011.2
20260507013035 52 0.0 1.0 0.00 0.70 0.00 93 1011.2
20260507012036 52 0.0 0.0 0.00 0.71 0.00 93 1011.2
20260507011016 52 0.0 0.0 0.00 0.71 0.00 94 1011.2
20260507010016 52 0.0 0.0 0.00 0.72 0.00 94 1011.2
20260507005036 52 0.0 0.0 0.00 0.73 0.00 94 1011.1
20260507004035 52 0.0 0.0 0.00 0.74 0.00 94 1011.1